RH
13 13 13 12 12 12 12 12 14 17 20 24 22 24 41 52 38 22 23 22 17 31 56 72 79 75 67 64 63 66 70 65 60 61 57 49 51 61 61 54 52 52 52 57 64 63 55 55 61 59 58 53 48 60 75 78 76 61 48 56 65 58 49 49 53 54 52 52 56 58 55 52 53 57 66 65 62 72 76 77 81 75 77 81 71 67 66
13 13 12 12 12 11 12 12 11 13 17 20 19 28 49 50 31 26 26 15 17 39 56 63 65 61 58 59 58 59 66 68 65 60 57 56 57 59 57 51 46 49 59 62 57 50 42 42 52 58 55 47 54 75 76 67 66 52 39 48 53 46 41 42 53 58 51 55 62 58 53 54 57 68 74 71 76 85 88 89 80 74 80 73 66 75 62
13 13 12 12 12 12 12 11 11 15 15 17 20 29 47 49 37 39 36 19 28 55 63 60 61 64 64 60 59 60 60 63 65 59 57 62 61 53 48 50 54 56 59 59 58 53 42 39 49 54 52 52 64 82 77 63 67 75 76 71 60 57 53 40 40 42 35 43 48 40 47 57 61 72 76 75 85 83 72 76 82 81 77 62 63 71 47
13 12 11 12 12 11 13 12 12 15 16 19 19 23 40 45 40 48 46 33 44 67 76 71 61 61 67 59 58 66 58 55 62 56 48 55 60 56 52 56 58 54 56 59 58 56 51 50 55 60 63 62 64 77 80 69 75 95 102 91 78 77 69 44 38 42 36 33 31 31 46 51 48 62 74 77 85 81 73 82 88 84 78 64 57 54 37
13 12 12 12 12 11 13 13 14 17 19 21 20 28 47 49 45 53 46 34 48 65 72 76 65 59 65 56 50 64 64 55 55 48 42 52 60 59 64 67 56 48 59 61 52 56 60 54 53 61 70 71 66 73 77 70 81 99 97 84 68 51 47 48 48 47 39 33 30 32 42 42 36 47 62 76 91 87 75 74 72 67 65 58 51 50 44
13 12 12 11 12 12 12 15 17 18 19 19 21 36 54 53 49 54 45 39 56 61 56 67 71 68 76 70 59 69 73 65 61 55 54 60 56 50 56 69 71 69 67 54 50 61 57 46 54 61 65 72 66 58 62 68 79 79 66 68 61 35 35 54 56 53 50 42 37 36 40 44 45 47 50 62 84 89 73 64 63 57 50 41 40 45 44
12 13 12 11 13 11 12 17 18 19 21 18 22 34 45 48 51 54 53 54 62 62 58 63 64 69 83 78 65 72 75 68 68 70 66 63 60 58 57 65 79 87 79 65 65 68 45 32 56 67 59 64 61 43 42 53 63 58 46 59 66 47 54 73 65 58 56 42 38 44 46 50 50 48 47 50 68 81 73 65 62 56 50 43 40 47 49
13 13 12 11 13 11 12 15 17 21 21 16 26 39 40 42 47 47 54 62 65 67 71 66 56 65 85 75 62 74 79 67 69 75 68 59 60 68 70 70 80 89 88 77 67 68 55 36 49 62 52 54 62 53 39 32 41 53 49 52 48 32 54 86 72 57 58 46 44 52 53 56 55 47 46 48 56 69 70 67 68 68 68 62 57 66 66
13 13 12 12 13 12 12 13 14 19 19 18 33 45 38 35 36 34 43 58 64 68 75 78 69 67 77 73 64 71 71 67 72 76 75 72 67 72 77 77 82 86 84 79 71 77 82 64 61 69 57 52 57 51 41 29 33 49 50 48 44 28 46 79 64 45 51 45 43 49 46 49 55 49 46 47 52 64 68 66 69 71 70 66 66 71 60
13 13 13 12 13 12 12 11 12 16 16 18 30 40 38 35 31 35 47 55 66 76 79 82 74 61 66 77 76 72 69 74 73 58 65 83 80 79 84 78 77 74 63 65 74 85 90 80 78 78 66 60 56 46 45 40 36 51 55 54 63 48 39 55 51 44 55 50 43 47 41 41 51 51 44 38 42 56 62 60 61 60 55 55 58 53 37
13 13 13 13 13 12 11 10 11 14 14 15 23 33 37 32 31 51 63 54 61 82 81 72 66 59 66 78 81 78 77 84 72 40 45 75 81 85 90 79 74 75 65 61 68 79 86 82 77 69 55 52 51 46 53 50 46 62 57 48 72 74 52 50 48 45 63 70 54 41 38 41 47 50 47 38 34 43 47 44 45 47 46 47 47 41 35
12 13 13 13 13 12 13 12 10 12 13 12 17 28 33 26 33 66 78 58 59 80 79 70 71 72 74 77 79 79 78 81 77 59 59 78 85 90 93 79 66 66 70 72 68 66 69 65 61 58 53 55 54 52 56 53 52 64 50 35 63 80 60 54 54 48 59 73 59 41 45 51 44 46 56 50 41 44 45 42 40 42 46 47 44 42 40
11 12 13 13 13 13 13 14 13 14 16 12 13 25 29 22 35 73 84 65 65 83 81 74 78 80 78 78 81 83 78 76 82 81 77 81 87 91 96 92 77 67 75 82 71 58 58 64 67 58 53 62 63 58 60 57 53 61 51 36 52 69 58 49 55 56 53 57 54 42 43 46 35 39 57 57 48 47 46 44 40 35 39 44 45 44 40
10 11 12 12 13 14 12 14 14 14 18 16 14 22 24 17 33 67 79 67 69 84 83 72 72 78 77 76 77 76 71 70 76 76 73 80 88 89 93 96 83 73 78 79 69 61 61 73 82 69 59 65 57 43 49 56 56 63 59 40 36 50 53 42 42 52 50 51 60 51 38 37 37 40 51 53 49 47 45 45 41 32 34 42 40 36 36
10 10 12 11 13 14 13 14 16 15 18 17 14 21 25 19 22 39 56 66 68 71 76 72 68 71 75 74 74 70 63 63 67 68 74 85 87 80 82 84 74 68 70 68 73 76 59 53 62 56 49 49 36 27 38 47 51 58 60 50 33 31 45 42 37 54 60 52 59 59 47 45 47 45 46 46 45 46 46 46 43 32 30 34 33 31 35
10 9 11 11 11 14 14 15 17 16 18 18 14 17 22 21 19 20 36 62 62 51 66 83 79 76 78 75 71 69 69 69 67 65 69 76 82 82 76 70 66 70 72 70 79 79 55 45 51 47 40 38 30 32 40 38 40 45 47 49 40 36 55 56 40 50 60 45 44 57 51 41 39 40 44 43 42 45 46 47 52 48 36 31 33 33 34
11 10 10 10 10 13 13 14 16 16 18 18 15 16 19 21 21 16 33 70 77 63 80 100 89 75 74 70 67 70 77 79 69 60 58 62 76 85 77 67 67 71 71 72 77 74 62 58 55 47 51 51 35 32 40 36 37 42 39 44 48 47 59 61 45 47 58 51 52 62 54 38 35 41 49 48 42 44 49 51 58 59 47 36 37 37 36
11 10 10 10 10 11 12 14 15 16 18 17 13 15 18 21 20 14 34 77 88 71 83 99 83 68 72 76 74 71 68 64 61 61 62 63 74 85 81 72 65 60 62 69 71 69 65 62 54 46 52 55 38 30 39 39 36 40 40 42 53 60 62 61 56 58 64 65 66 63 51 45 46 49 52 47 39 41 46 45 46 48 46 43 42 40 39
12 11 11 11 10 10 11 12 13 13 13 14 13 15 16 19 18 13 32 77 90 72 77 90 81 78 85 82 74 71 66 63 69 72 55 41 56 79 79 67 60 60 68 71 66 64 63 61 58 49 51 63 55 36 36 40 37 38 34 31 48 67 67 61 62 61 63 72 76 65 52 50 52 52 48 41 38 42 42 37 38 42 43 44 44 41 40
11 11 11 11 11 11 10 10 11 10 10 10 12 15 15 17 16 10 24 67 94 85 79 84 83 86 90 79 67 67 64 60 71 79 61 44 54 60 46 41 52 61 62 55 49 53 57 59 60 53 55 68 60 37 41 53 48 35 25 26 46 60 55 61 74 65 49 55 64 58 52 52 48 45 46 42 39 38 32 30 36 40 38 39 41 41 41
11 11 12 11 11 11 10 11 11 10 11 11 8 11 17 19 20 16 14 35 67 76 73 78 83 82 82 80 77 77 71 61 64 75 72 65 64 52 36 40 56 61 57 52 47 45 48 58 63 57 56 57 46 42 54 61 58 50 37 35 50 52 42 53 68 55 37 42 47 40 41 49 42 31 35 39 35 30 26 25 28 29 31 35 38 38 40
11 12 12 11 12 12 10 11 11 9 11 12 7 9 18 19 20 21 15 23 58 80 76 76 78 73 70 72 70 71 76 73 71 75 74 67 63 60 56 55 58 63 63 57 51 48 50 56 57 54 57 54 46 54 60 50 53 62 47 34 46 51 43 44 48 44 40 40 35 27 31 44 42 28 25 27 25 25 28 28 25 25 27 33 35 34 38
14 14 14 12 12 12 11 12 13 10 10 11 8 8 15 18 18 17 15 32 67 83 74 71 71 64 66 69 62 61 68 67 65 71 74 69 63 60 61 57 54 64 69 57 52 60 64 64 57 50 56 58 49 52 57 51 58 65 48 38 49 48 38 36 40 45 44 30 23 25 27 32 37 33 29 29 27 26 28 28 28 26 24 29 33 33 35
16 17 17 16 14 13 12 11 12 12 12 12 10 9 12 17 18 15 17 39 65 69 61 63 65 59 60 63 60 60 63 57 55 60 64 66 61 52 58 64 59 64 72 64 58 60 60 60 57 48 50 58 52 46 48 51 61 62 51 54 63 50 32 30 35 41 42 32 27 28 24 22 27 27 27 30 29 28 29 29 28 27 25 29 34 33 37
17 16 17 18 17 15 14 12 11 13 14 13 13 13 15 18 19 17 18 33 55 61 49 43 50 57 59 58 58 62 57 48 47 52 56 65 66 55 58 68 64 63 67 60 54 54 51 53 58 53 52 56 51 45 45 47 53 53 46 51 59 46 32 34 37 34 35 32 27 24 23 25 26 24 25 26 25 26 28 27 28 29 29 32 35 37 41
17 17 16 17 18 17 17 15 12 11 12 13 13 13 15 18 20 19 17 22 41 60 56 45 49 60 61 58 59 59 53 47 46 46 47 56 64 63 63 66 64 62 59 54 58 65 64 62 62 61 62 60 50 49 54 49 44 46 44 42 45 39 35 40 40 36 36 34 28 26 28 28 25 25 26 25 24 25 25 24 29 34 34 37 40 41 43
16 16 15 15 15 16 18 17 15 13 12 12 12 11 13 17 17 16 20 22 28 39 46 48 55 62 61 63 63 54 49 51 49 46 48 51 55 62 65 65 68 69 61 56 61 66 65 63 62 69 80 75 57 57 66 55 44 52 55 46 39 38 39 40 41 43 45 38 28 27 31 30 26 25 25 23 23 25 25 26 32 37 38 39 41 43 45
15 15 14 13 13 15 16 17 17 16 13 12 14 13 11 14 16 15 17 20 25 41 57 60 58 57 55 60 64 57 52 56 55 52 53 50 51 63 71 70 75 78 69 62 64 64 62 63 65 72 79 68 52 59 68 58 52 60 60 48 38 35 34 36 40 44 40 29 23 26 29 28 25 23 23 24 24 26 27 27 29 33 37 38 40 42 46
14 14 14 15 15 13 14 16 17 18 17 15 16 16 14 13 15 17 17 14 18 44 71 66 48 45 53 62 70 65 57 58 62 63 64 62 60 68 78 79 81 79 72 71 75 76 77 80 77 69 59 47 47 60 63 60 62 59 46 38 37 32 29 30 32 31 29 25 25 27 27 27 26 24 24 25 26 28 30 27 27 31 34 37 41 43 43
16 18 17 18 18 15 14 16 15 17 21 17 18 32 39 28 14 13 22 20 12 31 67 69 43 39 56 67 72 73 67 66 69 69 73 78 74 68 74 83 83 74 65 65 70 73 78 82 78 67 54 49 56 63 62 70 79 64 40 34 37 32 29 30 28 26 28 27 25 26 28 29 27 26 27 28 28 32 33 30 29 31 32 36 42 44 43
18 20 18 18 19 18 17 17 13 15 21 22 25 40 46 33 15 11 19 21 11 27 70 78 46 38 57 62 60 66 67 65 71 75 77 82 81 74 74 79 76 69 69 72 72 73 77 76 69 62 58 58 67 74 72 75 79 66 46 37 35 32 32 33 30 30 30 28 28 32 34 32 30 31 32 29 29 34 37 35 32 32 34 39 42 43 43
18 20 19 18 19 18 17 19 16 14 16 18 21 25 24 20 17 13 16 20 14 25 62 69 38 35 61 63 57 68 73 65 69 76 76 78 80 77 77 76 68 63 72 81 80 77 78 77 72 69 64 59 67 83 88 81 73 58 41 32 31 34 36 34 33 35 34 32 36 40 37 33 32 33 32 30 29 34 39 38 35 35 38 41 43 43 44
16 19 18 17 19 18 17 20 19 16 15 14 15 17 16 16 17 12 15 21 16 24 56 65 37 32 52 50 42 56 68 65 64 66 67 70 70 67 70 73 65 59 66 77 79 77 77 74 70 71 72 65 68 82 89 80 63 45 34 32 35 35 36 37 38 39 37 35 38 40 36 31 30 31 35 37 36 37 39 40 40 42 45 48 50 50 49
16 18 17 17 19 18 18 19 19 18 17 15 14 17 16 15 17 15 14 18 18 24 46 55 40 36 49 53 50 51 51 51 55 59 63 64 59 57 65 70 69 68 70 71 69 67 66 65 65 70 75 73 72 78 76 63 50 42 40 41 39 37 40 42 40 39 38 36 38 39 35 33 35 37 39 40 39 39 42 45 47 50 52 54 57 57 55
16 16 16 18 19 19 21 21 19 19 19 16 17 20 18 16 18 17 14 18 25 30 38 45 46 41 38 45 58 57 46 47 55 57 57 54 50 56 66 65 63 68 66 62 66 69 63 60 63 70 75 75 74 76 69 55 47 45 43 41 38 37 39 39 34 33 34 35 37 40 39 41 45 43 40 41 44 45 48 52 53 56 56 55 56 59 60
16 16 17 18 19 22 25 22 20 21 21 19 20 22 21 19 19 17 17 18 23 31 39 44 48 42 27 30 48 49 42 53 64 60 56 55 54 62 68 63 65 75 70 64 76 80 66 56 59 67 77 80 73 65 58 50 46 45 39 36 35 34 34 35 33 33 36 38 41 43 43 46 49 48 45 46 49 51 55 58 57 58 61 60 59 62 66
14 15 18 19 20 26 27 22 20 23 22 21 24 23 20 21 18 17 22 20 19 32 45 42 43 51 45 39 44 42 41 59 70 59 55 62 63 65 69 68 74 83 75 69 83 87 69 58 61 68 77 78 64 51 48 45 43 42 37 33 34 34 34 36 37 39 42 43 39 37 39 43 47 50 51 51 51 53 58 59 56 58 62 62 62 64 66
15 18 21 18 23 34 34 25 22 23 21 22 24 19 19 28 29 29 37 34 26 38 48 37 38 56 53 39 39 39 39 56 69 59 56 66 67 61 62 66 71 73 65 63 76 77 63 62 74 79 79 72 56 45 45 42 39 40 39 36 37 37 35 36 39 43 45 41 33 31 34 37 40 42 45 46 47 50 54 54 55 57 61 63 63 64 64
18 20 20 21 28 38 35 24 20 21 22 24 24 20 25 35 31 28 39 43 37 40 44 38 45 61 53 38 45 50 43 49 63 61 58 65 63 55 53 56 59 60 57 59 62 54 47 65 87 88 81 74 59 43 39 40 39 39 38 37 37 37 37 39 41 41 40 36 32 32 35 37 39 41 42 45 48 51 53 57 59 60 61 63 64 65 68
21 21 25 31 31 28 24 21 18 18 22 27 27 25 28 31 26 24 33 35 30 34 40 42 55 70 59 39 42 50 44 44 55 61 63 66 64 58 56 55 53 51 54 67 76 64 50 61 78 75 69 69 59 42 38 44 44 38 37 37 35 35 37 38 37 35 36 36 36 37 39 43 48 50 49 50 53 54 55 59 61 61 63 66 67 67 67
23 22 26 31 27 21 21 22 18 17 24 28 27 25 23 24 31 41 40 25 21 39 54 49 45 54 55 48 51 58 54 51 60 69 69 68 68 65 61 59 56 48 46 64 83 77 57 56 69 74 69 61 50 40 41 46 43 37 36 37 34 33 36 36 34 34 36 39 42 43 42 46 52 56 56 57 59 61 61 61 60 61 64 65 64 62 57
22 22 23 25 24 21 22 22 19 21 23 20 18 22 25 25 29 33 28 22 26 39 47 45 45 53 57 56 60 63 56 53 67 77 68 60 69 75 69 62 59 53 52 64 74 68 56 56 68 74 64 49 41 42 43 41 39 38 38 38 36 36 37 39 38 37 37 41 47 50 48 50 55 56 55 56 60 62 62 61 61 60 58 57 56 55 53
23 25 23 23 25 24 22 22 23 24 24 22 19 17 19 29 34 27 25 39 50 44 36 41 51 57 55 50 54 60 57 58 73 81 66 58 68 72 62 57 61 63 65 68 65 58 61 68 69 62 51 41 40 42 40 38 40 43 41 38 38 36 37 40 44 43 42 44 48 49 51 55 57 53 50 55 62 63 60 57 56 56 55 54 54 53 52
24 26 26 27 29 26 20 17 18 18 17 21 20 11 12 32 44 36 31 42 48 45 51 61 53 42 43 52 60 71 77 77 77 72 60 58 66 63 53 58 72 70 59 56 57 61 70 74 66 52 43 39 37 38 39 40 44 45 44 43 42 42 44 48 50 51 51 50 49 49 52 54 54 52 51 53 58 63 62 58 56 56 57 57 56 54 54
23 30 30 24 23 23 18 16 21 20 13 15 26 29 28 35 41 43 51 58 48 39 56 73 62 45 47 55 56 67 82 81 69 63 61 58 57 56 57 66 74 67 55 54 62 65 63 62 60 54 47 42 38 38 41 44 46 48 53 53 51 51 54 57 59 61 62 60 56 56 57 58 58 59 58 54 54 60 64 63 61 62 62 62 62 60 59
25 37 33 18 17 24 19 13 19 21 15 25 49 58 47 40 44 53 65 72 63 54 64 76 68 56 55 52 46 57 76 71 55 57 65 57 47 55 64 59 52 51 53 57 64 64 59 59 60 54 43 39 41 44 49 53 54 57 60 60 56 57 60 62 64 67 66 63 62 63 63 62 62 63 62 60 58 60 63 63 64 66 67 67 66 63 60
28 40 34 22 22 25 20 23 38 43 36 44 66 76 66 57 58 63 67 70 70 71 75 74 62 52 55 57 51 55 71 72 57 55 60 52 46 59 65 52 45 53 56 51 58 68 65 55 50 45 40 44 52 57 59 60 59 60 63 62 61 63 64 65 69 70 68 67 70 71 69 68 67 66 67 67 65 63 63 64 66 69 70 69 68 64 62
29 32 28 23 23 24 30 46 57 55 52 62 78 87 80 60 45 50 65 75 73 67 62 56 47 42 53 67 66 58 62 65 57 53 57 55 48 52 57 53 53 59 55 49 61 73 60 43 41 47 51 57 64 66 64 62 60 61 64 66 66 67 69 70 73 72 69 71 75 74 72 72 71 70 73 75 72 67 65 65 68 70 71 71 71 69 67
27 26 26 28 29 39 58 63 46 40 61 82 84 76 66 52 48 63 78 77 72 69 63 57 52 46 47 59 65 59 55 56 49 45 51 55 48 48 56 58 56 57 59 63 68 64 47 40 49 58 62 66 69 68 64 61 61 63 67 68 68 69 71 73 74 72 70 72 75 74 72 74 75 75 77 79 76 72 68 68 70 72 71 71 72 70 68
23 25 32 34 32 42 58 51 30 36 65 76 66 61 60 56 61 76 78 70 73 74 61 53 60 61 52 52 56 53 54 61 58 48 49 56 52 46 48 52 57 66 76 75 63 49 43 48 57 61 62 65 66 62 60 62 65 68 69 69 69 70 71 71 72 72 71 71 71 71 72 75 76 77 80 81 80 77 75 73 73 72 70 71 72 70 68
27 30 38 43 46 53 51 30 19 36 53 48 44 60 69 59 55 63 65 63 66 60 45 47 63 63 51 51 54 45 42 53 56 49 52 64 64 55 53 57 61 64 63 56 47 45 50 55 59 62 63 63 61 61 63 65 68 69 69 68 68 70 70 69 70 72 72 70 70 72 73 72 72 75 80 81 80 82 81 77 73 72 70 70 70 68 67
33 32 37 47 61 68 54 31 29 48 58 51 53 64 62 53 59 70 66 55 50 49 51 61 66 51 39 47 55 46 39 45 48 47 54 65 65 59 60 61 55 48 45 45 46 50 55 58 62 67 69 66 63 64 66 66 67 67 67 66 68 70 70 70 72 73 73 72 71 71 70 69 68 74 81 83 83 87 87 81 73 72 71 69 66 65 66
Wind_Speed
18 17 16 15 14 13 10 7 6 8 6 4 6 5 4 4 2 6 13 6 8 14 7 3 5 4 0 1 2 2 3 2 3 3 4 2 2 4 3 1 2 1 1 1 2 2 1 0 0 1 2 2 4 4 2 3 2 2 0 1 1 0 2 1 4 4 3 4 5 2 1 3 2 1 1 4 2 3 5 5 3 1 3 1 1 3 7
18 17 16 14 13 12 10 6 4 6 7 7 7 6 3 3 2 5 15 8 2 6 4 2 4 3 2 4 3 3 2 2 3 3 3 2 2 3 2 0 1 1 1 3 2 1 1 1 1 1 2 2 3 4 3 2 2 1 0 1 1 1 0 1 3 5 6 6 6 5 4 1 2 3 1 3 4 5 4 2 2 1 4 4 3 4 7
18 17 15 14 13 11 9 7 4 5 6 5 7 6 3 4 1 4 15 18 10 4 3 6 6 3 4 5 3 3 3 2 1 2 2 2 2 3 1 0 1 1 2 4 2 1 1 1 1 1 2 2 2 2 4 3 2 2 2 2 1 2 2 2 2 2 4 4 4 4 3 2 1 2 3 3 5 7 4 1 3 2 4 4 5 6 7
17 17 16 14 13 11 9 7 4 5 6 6 8 7 3 3 3 2 8 13 10 4 1 5 6 5 5 4 3 3 3 2 1 2 2 2 2 3 2 1 2 3 3 3 2 2 2 1 1 1 2 3 3 2 4 3 3 3 3 3 3 2 1 2 5 6 5 6 7 4 2 2 5 5 5 5 4 6 5 4 3 4 3 3 7 8 9
17 17 16 14 12 11 9 7 4 4 6 8 8 7 4 2 2 1 1 3 5 5 4 5 4 3 4 3 1 2 2 2 2 2 1 1 2 3 2 2 2 1 2 2 0 1 2 2 1 2 3 4 4 3 2 2 2 3 3 1 3 3 3 3 5 7 8 8 9 6 2 5 9 8 6 7 6 6 7 5 6 4 3 5 9 7 7
17 17 16 14 12 11 9 7 5 4 5 5 5 5 4 3 2 1 1 2 2 3 2 3 6 5 4 3 2 2 3 2 1 1 2 2 2 2 2 4 3 1 1 2 1 1 2 1 1 1 2 3 4 3 1 1 1 3 3 2 3 4 3 4 3 5 9 8 9 8 5 6 8 8 8 8 8 9 10 10 8 7 5 10 9 5 7
17 17 17 15 13 11 9 7 6 4 3 3 5 5 3 3 4 1 3 3 3 2 2 4 7 6 4 4 3 3 3 2 1 1 2 3 3 3 2 3 4 3 2 3 3 2 1 1 3 2 2 2 1 2 2 1 2 2 2 2 2 3 3 3 2 5 9 10 10 7 5 5 6 8 10 9 9 12 13 11 8 9 11 14 12 10 13
17 17 17 16 14 11 9 6 4 5 5 4 6 6 2 3 3 1 3 4 2 2 3 4 6 5 4 3 2 2 3 2 2 0 2 0 2 2 3 4 3 1 1 4 3 5 5 3 4 4 3 2 2 2 3 2 2 3 2 1 1 0 3 1 3 3 8 9 7 4 3 4 7 10 11 9 8 9 10 9 6 7 10 14 12 11 13
17 17 17 16 14 12 10 7 5 2 4 6 6 5 4 5 5 6 7 4 3 3 3 3 5 3 3 2 2 1 2 4 3 0 1 3 2 1 4 5 3 1 2 1 4 6 6 5 5 6 5 3 3 3 2 3 0 3 1 0 2 1 2 2 5 3 7 5 5 5 4 4 7 12 13 11 8 7 7 6 6 7 8 9 6 6 10
17 17 17 16 14 13 10 8 7 3 5 8 7 4 5 8 6 5 7 4 3 2 2 3 4 2 1 2 2 1 3 4 3 2 1 2 2 3 5 5 2 1 1 3 5 5 6 6 5 5 4 3 3 4 3 4 4 2 2 1 1 2 1 1 2 2 7 5 4 4 5 6 7 9 9 9 8 6 5 5 7 9 7 4 5 7 8
16 16 16 15 14 14 12 10 9 4 5 9 12 9 7 7 5 3 6 5 2 2 2 3 3 2 2 2 2 2 2 3 3 3 2 2 1 1 4 5 3 1 4 4 3 3 5 4 3 3 3 3 4 3 2 3 4 4 5 2 0 3 3 1 1 1 6 7 5 5 4 4 7 6 6 7 6 7 8 8 9 9 7 5 7 8 8
16 16 16 15 14 13 14 15 14 9 7 15 21 17 8 7 7 4 6 5 1 3 3 1 1 3 4 4 3 3 4 3 3 4 4 3 1 2 2 4 3 1 2 2 3 1 2 2 3 3 4 4 5 4 3 5 6 4 4 4 3 3 3 2 2 1 4 4 6 5 5 7 7 5 3 4 4 5 7 9 11 10 9 10 11 12 12
17 16 15 15 14 13 13 14 14 13 11 13 20 18 11 8 9 5 5 7 1 0 3 2 1 2 5 6 5 3 3 2 2 2 4 2 0 1 2 2 3 1 2 2 4 3 1 3 3 4 4 4 4 4 6 9 9 6 4 4 5 5 4 2 1 2 3 2 3 2 7 9 8 5 3 3 1 2 2 8 11 12 10 10 11 13 13
17 15 14 14 14 14 13 13 12 11 8 6 11 15 11 7 7 4 4 6 2 3 3 4 2 3 6 6 5 4 1 3 4 3 2 2 2 1 2 2 3 3 2 2 3 4 1 2 4 4 4 5 5 4 5 6 6 6 7 5 5 6 4 1 1 2 1 2 3 4 7 10 10 4 2 3 2 4 4 4 8 8 7 7 8 11 12
16 15 13 13 14 14 14 13 12 11 7 4 7 12 11 7 5 6 6 7 5 1 1 3 5 6 6 4 4 5 3 2 2 3 2 1 1 1 3 2 2 3 2 2 2 3 2 1 3 4 4 3 2 3 3 3 2 1 4 5 5 4 3 3 2 2 1 1 4 5 6 7 6 5 3 2 2 5 6 1 5 7 8 9 9 11 11
16 14 13 12 13 13 13 12 11 10 8 5 6 11 12 8 7 10 10 7 6 3 3 4 6 6 5 3 3 4 4 2 1 1 3 3 2 2 3 2 2 2 3 3 3 3 3 1 1 1 2 2 2 3 4 2 3 3 2 5 5 2 2 4 3 2 1 1 4 4 4 6 7 5 3 1 3 5 6 3 6 7 8 8 9 10 11
16 15 14 13 12 12 12 12 11 11 8 4 6 10 13 10 9 13 12 7 4 2 2 2 4 5 4 3 1 2 3 2 2 2 0 2 1 2 2 2 2 1 3 3 2 3 3 1 2 1 4 3 2 2 3 1 3 4 2 3 4 1 2 3 3 5 3 3 3 4 5 8 6 4 4 3 3 6 6 5 8 6 6 7 8 10 10
17 16 15 15 14 12 12 10 10 12 11 9 11 14 15 12 8 8 8 6 5 2 2 1 4 3 3 3 3 3 3 3 2 2 1 1 1 2 1 0 1 1 1 2 2 3 2 1 1 2 3 4 1 1 3 1 2 4 2 1 2 2 1 2 4 5 4 4 4 5 5 8 5 4 6 5 3 5 2 6 7 5 6 7 8 9 10
17 18 18 17 16 15 13 11 8 8 9 8 8 11 12 10 8 8 8 6 4 3 2 0 2 3 2 2 2 1 1 2 3 3 2 1 2 3 2 1 1 0 1 2 2 2 2 2 2 3 2 4 1 1 2 2 3 3 2 1 2 1 1 1 2 3 3 4 3 4 7 5 2 6 4 4 2 0 5 6 3 4 6 7 8 9 9
17 18 19 19 19 18 16 14 11 9 9 7 4 8 12 7 4 4 4 5 6 4 1 0 1 3 3 2 3 2 1 1 2 3 4 3 3 4 3 3 1 1 1 1 1 1 2 2 3 2 2 4 2 1 2 3 4 3 2 3 3 3 2 2 3 4 2 1 1 3 7 5 7 9 3 2 4 5 6 4 2 4 6 5 7 9 8
17 19 19 20 20 19 18 17 14 10 10 7 4 10 16 14 10 6 6 12 12 4 2 3 3 3 3 2 2 3 3 2 3 3 4 3 2 3 2 3 3 2 1 2 2 1 2 3 2 1 2 2 1 2 2 3 5 5 2 2 2 4 4 3 4 3 1 1 4 4 4 5 9 9 4 6 9 9 6 4 5 6 5 4 5 8 8
18 19 20 20 20 20 19 19 17 14 11 6 2 9 15 18 18 14 11 17 18 10 6 8 5 4 4 3 1 1 1 1 2 2 4 3 1 2 3 3 3 3 2 3 2 1 2 2 2 1 2 2 2 3 3 1 5 6 1 2 3 6 6 4 4 4 4 5 9 8 3 4 8 9 8 9 11 9 7 6 8 8 6 4 5 7 8
16 18 20 20 21 20 19 20 19 18 16 10 7 13 16 15 15 13 13 19 21 14 9 9 6 4 4 2 1 0 1 1 1 3 3 3 1 1 2 2 2 1 1 2 3 3 3 3 2 2 2 3 3 1 2 2 4 4 2 2 5 6 4 3 2 4 5 8 11 11 9 8 8 10 11 11 11 10 8 7 8 9 8 6 5 7 8
12 15 16 18 20 20 20 19 18 18 18 15 14 18 21 19 16 15 14 14 11 6 4 4 2 2 1 1 1 1 0 1 2 4 4 4 3 1 2 3 3 1 1 2 3 3 2 2 2 1 2 3 3 2 3 4 4 3 1 3 5 3 2 3 3 3 4 6 7 6 8 10 8 7 9 11 12 11 9 8 9 11 10 8 7 8 7
9 13 14 15 16 17 19 19 18 16 15 14 14 16 18 16 11 9 8 7 5 5 4 1 2 2 2 2 1 1 1 0 0 3 5 5 3 2 2 4 4 2 3 3 3 4 2 1 2 2 3 3 2 3 3 4 3 2 2 4 4 1 1 2 5 5 5 10 13 11 10 11 10 10 10 10 10 11 10 9 10 10 10 8 8 7 6
8 11 13 13 12 11 13 16 17 17 15 13 13 14 15 15 10 7 8 10 7 6 4 1 3 3 3 3 2 3 2 1 1 2 3 5 4 3 4 5 4 3 3 4 3 3 3 2 2 3 3 3 2 2 3 3 3 1 4 5 2 3 1 3 3 4 6 11 14 13 12 12 11 11 11 9 9 10 11 10 9 9 9 8 8 8 7
8 10 12 13 12 10 8 10 13 16 16 15 16 16 15 15 11 7 6 5 3 3 3 2 2 3 4 5 4 4 2 1 1 1 1 3 4 4 5 6 5 3 4 4 2 2 3 1 2 4 4 2 2 2 3 3 2 1 6 6 2 3 4 3 1 3 7 9 9 7 8 10 11 10 11 10 8 8 9 10 8 8 9 8 7 8 8
7 9 11 12 13 13 10 7 6 8 11 14 16 17 18 18 15 11 7 4 2 3 4 3 1 1 2 4 5 6 5 3 3 2 1 2 4 4 6 6 4 3 3 2 1 2 3 2 3 3 2 1 1 2 2 1 1 3 6 5 4 5 6 5 4 5 9 12 12 9 6 10 13 13 12 10 7 6 8 10 9 9 9 7 7 7 7
8 9 10 11 12 13 13 10 5 2 3 4 7 10 14 15 14 13 11 9 6 7 6 3 1 1 1 2 4 7 7 5 4 4 3 2 3 5 6 5 4 3 3 3 2 2 2 3 3 2 2 2 2 2 2 0 2 5 7 6 7 8 7 8 8 9 10 13 14 10 7 11 15 14 12 10 7 6 8 10 10 8 8 7 7 8 8
8 8 9 10 12 12 13 12 9 4 1 2 1 3 6 8 10 10 10 8 6 6 5 4 2 1 2 2 4 7 9 8 6 5 5 5 6 7 6 5 4 2 2 2 1 2 2 2 2 2 2 1 2 1 1 1 2 6 8 8 9 9 8 9 10 9 10 13 12 8 8 12 14 12 11 11 11 9 8 9 10 9 9 9 8 7 9
7 8 9 11 12 12 12 12 11 9 4 1 1 1 2 1 4 6 7 6 4 4 5 4 1 1 2 1 2 6 9 9 6 5 6 6 6 6 6 5 4 3 3 1 1 2 2 2 1 1 1 1 3 2 2 2 2 7 10 10 9 9 9 9 9 9 11 13 11 9 10 12 11 10 9 10 11 9 7 8 11 11 10 10 10 10 10
7 9 10 11 12 13 11 10 10 9 7 5 5 5 4 2 1 3 3 3 3 3 4 3 1 1 2 2 1 3 6 6 3 2 3 4 3 3 5 5 3 4 4 3 1 2 3 2 2 2 2 1 2 2 2 3 4 9 11 10 9 8 7 8 8 8 9 9 6 8 12 12 8 8 8 8 8 7 8 10 11 10 8 8 8 9 10
6 7 9 11 12 13 10 7 5 5 6 9 9 8 7 5 4 2 2 2 2 3 4 4 2 1 1 1 0 2 4 3 0 2 2 4 4 3 2 2 1 2 4 4 2 2 2 2 3 2 2 1 2 2 1 5 10 14 14 12 11 10 8 8 8 9 10 8 5 5 11 15 12 9 9 9 9 9 10 9 7 5 5 5 6 7 8
4 7 9 11 12 12 7 4 3 2 3 5 6 5 6 5 4 4 3 1 3 3 3 3 2 1 2 2 2 2 4 2 1 1 1 2 3 3 1 1 1 1 3 3 2 1 1 0 2 2 2 1 2 1 4 9 14 15 13 12 13 11 9 8 8 9 10 8 6 8 12 14 13 12 10 10 10 9 8 6 5 5 5 5 6 7 6
5 6 9 11 12 9 4 1 2 2 2 2 2 2 3 3 3 4 3 1 2 2 2 1 3 1 1 4 4 2 3 1 1 2 2 1 1 2 1 0 1 2 2 2 1 0 1 1 2 2 1 0 1 3 7 10 13 12 9 10 12 9 7 8 10 10 9 7 6 8 10 9 9 10 10 10 9 6 5 5 5 6 6 7 8 7 6
6 8 10 12 10 6 2 0 2 2 1 2 2 3 3 3 1 2 3 3 3 2 1 1 2 1 2 1 3 2 2 1 2 1 0 0 1 1 2 3 0 2 0 2 0 1 2 1 2 1 1 2 4 7 8 8 10 11 10 11 11 8 7 11 12 12 12 10 10 11 10 8 9 10 9 9 8 5 5 6 6 6 8 9 8 6 5
7 10 11 10 7 3 2 1 2 3 3 4 4 3 2 1 0 1 2 3 4 3 3 3 1 3 3 2 2 1 1 2 2 2 1 1 1 1 2 2 1 2 2 2 2 3 1 0 2 2 4 5 6 8 8 8 9 11 11 12 11 9 9 11 11 10 12 14 14 12 10 8 8 7 7 8 8 6 5 7 8 8 9 9 8 7 7
9 10 9 6 3 1 1 2 3 4 5 5 3 2 1 1 2 2 2 2 3 4 4 2 2 2 1 1 1 0 1 2 1 2 1 1 0 1 1 1 1 1 1 3 3 2 1 1 1 2 5 6 7 10 12 11 10 10 10 10 11 10 10 10 9 7 9 13 15 14 12 12 12 9 7 8 8 7 7 8 8 8 8 9 9 8 8
9 8 5 2 1 1 1 3 5 6 5 4 2 0 1 2 2 1 2 2 1 2 2 1 2 2 3 1 2 1 1 1 2 2 1 1 1 1 1 0 0 1 1 2 2 1 1 2 1 1 4 6 6 8 9 7 7 8 8 9 10 11 10 8 8 8 9 10 13 14 12 12 13 11 9 8 8 7 7 7 7 9 10 10 10 10 8
6 3 2 1 1 2 4 6 6 5 3 2 2 1 1 2 1 0 1 2 1 1 0 1 1 1 2 2 2 2 1 2 1 1 2 2 1 0 1 0 1 0 1 3 2 1 1 1 2 2 4 5 6 6 5 4 6 8 8 9 12 14 12 10 11 13 13 13 14 15 14 12 11 10 9 9 8 8 8 7 7 10 11 11 11 11 11
2 2 2 2 3 5 6 5 4 2 1 1 2 1 1 1 1 0 1 1 1 3 1 2 1 2 1 2 2 2 0 1 1 2 2 1 1 1 1 1 1 1 1 5 2 2 2 0 2 3 5 6 7 6 6 6 8 8 9 10 13 15 14 13 15 17 15 12 11 13 15 15 13 11 11 10 9 8 9 9 9 10 12 12 12 13 13
3 4 4 5 5 5 4 2 2 2 2 1 1 1 0 1 1 1 0 1 1 2 1 1 1 2 2 2 2 2 0 1 2 3 2 1 1 1 1 1 2 1 3 4 0 4 2 1 3 5 7 7 7 7 7 7 8 8 10 12 14 15 14 13 13 16 17 14 12 14 16 16 15 15 15 15 13 12 12 12 11 12 13 13 14 14 13
5 5 4 4 3 2 1 1 1 1 2 2 1 1 2 2 2 1 2 2 1 0 1 0 1 1 1 1 2 1 1 1 1 2 1 1 1 2 2 2 0 2 3 1 3 2 1 3 4 6 6 5 6 7 8 8 8 8 10 12 15 17 17 15 14 17 20 19 17 17 18 17 18 19 19 17 15 15 16 17 15 14 13 12 12 13 13
4 3 1 1 1 1 1 1 1 1 1 1 1 1 1 3 2 1 2 3 2 2 1 1 2 2 2 1 1 1 1 1 1 1 0 1 1 2 1 1 3 2 1 1 1 1 3 5 6 7 7 6 7 8 8 8 8 8 10 12 15 17 17 16 15 15 16 17 18 18 18 17 18 20 20 18 15 15 18 19 17 14 12 11 12 13 13
3 2 2 3 2 1 0 1 1 1 0 1 2 4 3 3 3 4 4 2 2 1 0 1 4 3 2 2 1 1 0 0 1 0 0 1 1 0 2 3 2 1 1 1 1 2 3 5 6 6 6 7 7 8 7 7 8 8 10 12 14 13 13 13 12 11 11 14 17 17 16 16 17 16 18 19 17 15 16 18 16 13 12 12 12 13 13
1 1 3 2 1 2 0 0 1 1 1 3 4 4 4 4 5 5 3 1 2 3 2 2 4 4 1 1 0 1 1 1 1 1 1 2 0 2 3 1 1 2 1 1 3 3 5 6 5 5 6 7 8 8 7 8 8 7 8 10 11 12 12 13 12 12 13 16 18 17 16 16 16 15 17 19 19 17 16 17 16 14 13 13 14 15 14
0 1 2 1 1 2 0 2 3 3 2 2 3 4 4 3 3 2 1 1 2 3 3 2 2 2 2 1 1 0 1 2 1 1 0 1 1 2 1 1 0 1 1 2 5 6 6 6 5 5 6 7 8 8 8 8 8 8 8 8 9 11 12 12 12 13 15 17 17 17 16 17 17 16 16 18 19 18 17 16 15 14 15 16 16 15 13
0 1 1 1 2 2 2 3 3 2 1 1 1 2 2 1 2 2 2 1 2 3 3 3 2 1 0 1 2 1 1 1 0 1 0 1 0 1 2 1 2 3 3 4 6 5 5 5 6 6 7 7 7 8 8 8 9 10 10 9 10 11 12 12 12 15 18 18 16 15 16 17 18 18 16 16 18 20 18 15 14 15 15 16 16 15 14
1 1 1 1 1 2 4 2 2 4 3 2 2 2 0 1 3 4 3 2 2 3 3 3 2 1 1 1 2 1 0 1 1 0 1 1 1 1 1 1 3 4 4 5 5 4 5 6 6 7 8 7 7 7 8 8 9 9 9 10 12 14 14 14 15 18 20 18 16 17 18 18 18 18 16 14 16 18 18 15 13 13 14 15 16 16 16
1 1 1 1 1 3 3 0 2 4 5 5 4 2 1 1 3 4 3 4 2 2 2 1 1 1 0 1 2 1 2 2 1 2 0 2 2 2 1 2 4 5 4 4 4 5 5 6 6 8 10 10 9 8 8 8 9 10 12 15 16 16 16 18 19 20 20 19 18 19 19 18 17 17 16 16 17 19 18 16 14 14 14 15 15 17 18
1 1 2 2 2 2 2 0 1 4 5 4 4 2 2 2 2 3 4 5 3 4 2 1 1 2 2 1 0 0 1 0 2 1 2 3 3 3 3 5 6 6 5 4 5 5 5 5 5 7 9 11 10 9 9 11 13 15 17 18 18 17 18 19 19 19 20 21 21 19 19 19 19 19 19 19 18 16 15 16 15 14 14 15 16 17 18
1 1 2 2 0 3 3 1 2 4 5 4 3 2 1 1 2 3 4 5 4 2 2 1 2 3 1 2 2 1 0 0 0 1 3 3 3 4 5 6 6 5 5 6 6 5 6 6 6 6 7 9 11 12 14 17 18 19 19 19 18 18 19 20 19 19 20 21 21 20 20 21 21 20 18 17 14 10 10 13 15 13 12 14 16 17 18
Wind_Direction
6 8 8 9 11 13 20 33 36 37 53 99 97 80 62 71 128 347 357 15 90 75 62 337 35 68 68 62 53 27 77 74 358 11 20 21 47 45 46 67 76 96 167 111 97 93 106 164 167 182 221 220 215 215 168 130 116 95 71 280 269 102 72 29 295 295 303 312 323 335 60 83 101 250 155 134 146 138 151 181 188 230 273 240 99 260 270
6 9 10 11 14 15 20 26 20 41 73 95 89 92 102 103 160 7 12 8 96 85 94 121 76 77 87 73 35 11 68 64 31 32 10 4 83 74 48 16 80 103 101 93 109 141 116 156 222 172 188 219 217 205 187 149 138 146 200 198 240 259 74 56 348 337 340 345 345 335 333 17 207 242 189 139 116 102 119 146 111 258 241 170 150 246 260
5 8 11 14 17 17 22 26 33 68 88 102 95 110 127 72 81 338 17 35 63 104 145 133 121 122 98 78 35 22 52 42 58 93 29 12 127 112 78 325 83 75 71 72 61 42 88 204 280 112 207 257 276 222 207 183 174 220 212 146 135 207 179 116 95 315 307 309 305 298 287 267 249 225 204 178 133 129 150 128 103 236 239 160 167 236 264
5 7 12 16 17 19 24 30 53 84 94 116 103 95 115 74 50 331 1 28 51 72 84 89 102 132 115 77 29 57 64 335 308 96 61 17 73 79 45 355 61 46 53 64 23 7 34 56 103 130 233 263 286 252 209 193 207 206 167 124 98 105 205 175 164 193 219 237 250 244 196 252 270 252 224 207 168 141 127 114 167 204 191 188 223 241 272
8 9 13 16 19 22 26 34 57 101 108 117 100 66 58 92 82 84 42 21 38 39 21 43 78 132 128 101 61 67 55 328 338 45 60 37 58 67 42 32 56 60 73 89 254 308 357 24 99 161 226 256 292 289 208 202 221 162 134 135 101 83 296 243 182 214 230 234 252 261 247 252 256 254 234 208 186 151 143 184 214 170 121 257 248 225 249
13 12 14 17 23 24 27 37 54 105 132 130 103 53 28 75 124 173 114 95 89 61 38 73 79 71 81 99 99 64 46 38 30 350 349 12 37 82 45 12 7 268 187 131 145 300 353 337 243 198 231 272 327 333 248 240 278 123 94 356 111 118 268 241 179 255 262 255 264 264 249 249 247 242 237 217 189 178 192 218 210 163 190 254 256 226 241
18 17 18 20 23 26 33 42 46 74 123 152 108 77 40 88 109 6 30 88 137 132 99 97 82 63 59 73 78 98 95 99 192 278 357 359 0 71 116 295 316 304 237 138 140 214 195 275 260 213 192 246 330 340 265 288 23 91 93 340 118 140 260 242 173 286 282 273 274 259 227 249 261 249 241 225 201 197 211 231 214 190 226 253 263 268 267
22 21 21 22 25 26 31 42 54 80 103 113 93 81 80 137 140 129 65 73 80 63 55 77 80 55 43 65 71 103 121 149 209 290 67 120 316 50 131 223 265 312 147 135 177 220 184 180 240 190 164 239 217 206 226 196 14 22 98 319 348 138 279 271 99 324 288 280 292 283 221 245 271 271 262 245 227 220 227 240 223 205 238 255 263 273 273
26 25 25 24 27 27 28 39 49 84 125 108 80 71 90 106 121 130 110 74 6 20 36 68 89 51 16 101 138 124 164 177 162 119 197 185 214 173 160 192 218 52 68 157 237 237 181 180 218 186 171 221 212 216 230 175 153 347 93 218 352 21 291 354 54 349 280 283 331 329 314 306 285 277 271 257 239 225 223 228 208 195 224 254 269 273 269
27 28 30 28 29 33 32 37 43 74 140 120 94 99 116 103 98 106 103 80 3 25 32 39 77 82 334 145 151 168 208 195 142 97 258 209 192 194 174 166 153 60 312 255 245 224 186 198 217 189 189 250 243 235 221 167 162 163 149 173 340 124 136 351 39 303 274 291 343 335 339 337 294 262 244 231 226 227 236 249 233 207 201 231 246 246 261
28 31 33 33 36 40 41 46 51 64 157 139 122 131 146 128 117 81 80 81 359 2 52 45 70 125 166 146 118 93 145 192 185 155 183 223 204 140 161 151 130 200 235 246 247 205 194 205 209 193 214 262 261 246 212 195 197 168 146 149 292 110 116 191 194 231 271 292 333 342 333 304 269 238 189 193 213 222 231 248 248 225 201 221 251 260 277
30 32 35 39 45 50 55 61 62 67 119 138 130 129 138 132 117 88 86 105 330 352 70 97 207 165 165 144 110 115 147 170 206 179 164 203 259 48 97 144 137 272 265 297 342 330 237 260 258 252 264 271 271 271 244 240 244 212 165 158 151 124 126 206 195 197 265 307 7 348 280 238 244 253 207 202 210 203 225 259 265 249 232 240 261 270 270
30 33 37 43 51 60 68 71 72 77 99 129 129 123 130 127 105 85 96 108 111 281 115 114 334 102 133 130 107 119 153 102 23 98 120 129 227 11 17 152 169 253 320 5 25 34 341 303 305 282 289 325 326 293 252 244 243 226 197 171 149 142 150 193 194 205 275 340 50 287 270 267 277 283 215 194 179 153 240 279 266 251 240 233 246 260 264
29 32 39 46 53 62 70 73 77 81 89 129 130 122 129 130 106 107 118 102 105 226 143 109 76 103 124 130 116 111 99 26 20 34 69 91 127 226 271 213 203 271 321 43 40 39 32 1 13 344 322 359 4 322 270 255 241 215 208 201 159 140 142 174 266 221 218 252 234 262 307 307 298 284 190 186 191 167 175 264 263 246 226 212 231 258 263
31 32 38 47 53 58 64 68 72 77 80 108 131 125 124 119 113 129 127 108 110 207 213 161 173 160 140 138 133 117 87 15 24 23 353 8 98 243 251 237 273 307 356 79 65 45 43 41 29 356 335 358 352 307 301 305 305 242 196 178 148 135 155 173 216 239 124 283 288 312 330 303 270 248 242 237 185 153 134 87 287 259 228 212 222 246 254
34 37 40 48 54 57 61 64 68 75 80 92 126 125 111 99 107 114 107 101 114 144 233 198 158 137 126 133 149 136 131 158 148 48 342 331 336 291 264 271 308 333 52 65 75 74 60 68 132 192 276 235 219 286 303 311 323 347 72 124 126 83 59 118 157 271 293 222 272 270 265 267 254 236 242 219 152 126 95 23 292 261 233 211 209 229 242
39 43 48 53 57 58 60 62 68 74 74 89 134 122 102 94 109 113 104 89 90 117 245 212 123 109 104 114 182 180 153 144 125 107 334 273 269 292 307 325 338 51 76 59 39 62 74 91 122 178 261 231 177 264 292 308 301 309 0 113 151 201 13 100 184 246 227 187 246 252 243 259 252 198 172 181 154 96 62 326 283 251 224 204 194 217 235
43 47 52 58 61 62 64 64 72 82 85 95 112 108 98 98 110 114 108 95 90 116 262 8 109 132 140 145 179 195 154 129 113 107 88 317 243 204 220 242 48 21 67 93 72 73 97 190 179 165 254 267 169 222 259 263 263 259 233 159 200 223 221 172 211 245 223 199 244 270 261 259 249 159 156 170 126 73 51 270 260 219 211 208 194 213 231
47 50 52 56 59 62 65 67 74 92 97 97 105 99 87 92 109 107 101 92 87 133 195 27 98 152 156 123 118 118 130 125 119 114 92 340 249 179 147 101 124 334 29 86 113 118 124 252 240 145 211 286 302 185 225 224 228 232 221 290 297 259 235 215 212 235 221 198 223 276 281 265 146 116 146 164 122 229 242 244 237 186 202 213 209 219 229
50 54 54 55 57 58 61 64 65 74 80 74 96 95 77 77 126 124 114 118 100 92 152 221 133 157 168 157 131 132 148 125 118 135 143 191 204 123 70 339 277 136 59 77 165 187 161 241 261 167 190 250 246 196 249 263 255 237 211 227 224 188 199 251 219 201 213 245 256 290 289 262 134 119 120 190 192 224 240 249 253 219 212 216 221 226 224
54 57 57 57 58 57 59 62 60 64 73 68 83 91 77 73 81 86 126 136 122 108 202 180 155 147 152 174 155 141 150 161 170 165 153 181 197 129 131 234 208 161 169 157 164 227 202 202 240 244 217 235 246 229 240 293 300 281 206 186 222 192 182 233 249 212 166 242 234 228 237 199 165 159 186 214 218 233 249 263 269 256 231 214 227 236 226
55 58 58 58 58 58 59 62 60 60 66 65 110 108 91 83 84 88 109 110 94 85 130 140 134 126 117 115 126 133 175 187 190 171 138 132 191 160 157 177 176 188 192 138 129 242 229 187 199 225 235 244 254 243 205 207 297 295 259 142 232 214 191 202 241 224 198 231 247 250 236 181 190 213 238 242 244 252 251 250 266 271 250 216 223 245 235
53 54 55 56 58 57 56 59 60 60 63 72 105 112 105 98 96 102 109 98 84 80 101 111 108 103 95 89 98 144 216 212 235 215 164 129 129 191 176 167 173 202 179 137 162 185 183 192 192 182 231 228 209 246 275 238 249 263 240 232 252 235 188 159 222 253 268 269 263 263 265 254 232 232 245 255 262 266 260 251 258 263 256 238 231 244 238
47 45 48 51 55 57 56 57 59 61 65 70 83 94 99 103 106 106 102 95 89 84 75 71 100 141 160 186 142 100 301 238 228 224 199 162 145 197 257 216 173 147 261 213 169 122 132 202 177 150 245 229 176 178 258 256 239 225 238 283 289 281 163 171 229 265 296 284 269 256 257 264 264 257 257 258 258 258 257 253 253 257 259 250 239 239 233
38 31 33 38 46 54 57 57 58 62 66 69 75 88 97 101 106 107 99 96 115 125 98 10 285 200 183 212 201 200 212 81 203 211 206 200 180 165 207 192 158 152 198 191 129 96 110 204 153 165 228 236 203 200 225 242 236 202 225 269 275 288 113 231 239 232 236 260 272 276 271 268 269 268 268 267 262 259 257 251 249 255 260 253 239 230 217
33 20 18 23 31 46 59 61 60 62 67 72 78 85 91 91 87 86 95 101 103 100 101 221 265 230 208 230 241 213 189 112 88 148 188 210 210 185 168 153 129 114 114 102 100 123 145 157 155 178 213 234 235 209 208 239 250 229 251 255 202 124 177 229 229 242 258 270 278 287 291 281 265 256 259 261 259 262 266 263 257 254 254 253 242 226 213
33 22 23 29 33 41 56 68 70 69 71 75 78 80 82 83 76 68 84 105 97 63 96 179 263 265 233 229 229 220 209 189 149 109 130 182 186 184 169 147 122 91 81 68 56 117 110 101 200 202 210 230 228 190 208 252 271 258 261 259 138 131 216 214 168 278 276 276 276 283 297 292 278 269 270 268 261 261 268 271 263 248 242 240 239 236 229
49 42 40 41 42 43 48 64 86 88 83 77 73 73 71 68 64 59 60 76 132 132 135 162 189 80 198 227 230 222 221 226 210 191 172 176 177 185 179 156 129 104 107 113 143 135 133 178 210 202 207 225 246 254 271 298 288 257 256 235 180 194 209 183 180 241 261 276 281 277 272 278 281 283 282 279 271 259 261 263 256 245 239 230 224 234 239
66 53 41 36 38 42 44 47 54 111 120 84 61 63 64 58 53 52 51 56 87 108 106 101 91 106 191 219 216 210 214 227 233 227 234 229 203 196 189 176 166 150 126 120 128 147 189 209 201 196 210 187 188 268 297 51 207 252 248 209 197 215 212 200 219 245 263 275 277 275 269 273 279 284 288 288 277 253 252 259 257 249 244 230 218 227 234
62 45 34 31 32 32 34 38 37 23 281 237 297 32 51 46 39 43 48 55 79 103 106 109 129 260 260 211 198 206 208 208 218 234 241 242 234 221 209 202 200 174 105 83 156 180 217 251 249 269 271 192 148 203 259 169 223 265 260 236 228 234 232 229 235 242 255 265 272 279 280 277 280 286 288 283 270 254 250 258 257 252 245 231 220 225 233
50 36 29 26 24 20 20 28 31 28 23 253 259 32 72 36 17 30 43 48 63 92 99 101 107 322 320 276 209 207 204 201 210 237 243 244 248 236 215 208 210 192 155 131 212 198 206 233 236 272 287 164 134 150 175 168 249 277 266 253 247 242 240 247 246 238 249 267 285 298 285 276 279 286 285 277 265 248 238 253 259 255 245 233 227 230 234
41 29 20 12 9 8 9 17 26 31 45 69 81 89 110 121 33 27 42 42 53 94 101 86 46 311 306 312 275 184 179 183 200 267 249 228 218 204 198 201 213 208 187 171 212 240 218 193 164 179 224 191 133 127 150 169 225 255 258 261 267 259 250 258 263 257 257 263 280 301 296 286 272 258 263 283 284 257 239 252 260 255 242 233 233 238 240
28 13 4 357 355 355 357 12 28 33 55 71 76 81 81 73 59 44 35 48 65 83 102 100 83 272 251 295 313 165 157 155 97 340 269 211 175 151 186 209 220 230 212 196 199 238 221 147 136 179 265 311 104 116 220 223 231 246 259 271 279 278 276 277 277 276 273 257 220 242 277 285 285 276 272 284 287 269 253 252 251 239 224 222 234 243 241
3 354 348 343 343 344 346 10 32 31 61 68 67 68 61 52 48 42 37 128 113 66 62 96 108 256 282 357 356 197 174 165 280 305 271 215 173 151 201 277 13 260 217 198 186 255 268 163 148 184 261 328 91 136 257 251 248 253 264 273 277 279 286 287 275 266 268 263 230 226 250 272 289 297 289 282 277 267 255 242 221 210 220 233 240 243 240
331 337 335 332 334 336 333 20 28 33 81 69 44 34 25 7 19 37 37 83 100 38 356 74 92 130 304 347 328 240 180 166 247 219 211 225 182 157 147 78 339 273 228 189 155 243 243 201 164 180 229 275 176 224 243 249 256 263 268 273 279 285 293 290 281 274 274 279 274 269 268 274 281 281 278 279 278 266 245 234 220 216 232 249 250 240 230
314 325 328 329 329 319 269 229 22 24 43 17 335 329 336 331 348 54 63 71 74 89 174 116 62 139 165 275 290 235 168 252 291 257 170 260 294 30 76 85 259 265 248 84 60 261 253 196 153 186 269 217 208 228 231 234 253 268 272 273 279 284 281 278 281 287 294 296 292 288 285 276 267 268 274 282 283 265 239 244 240 226 236 251 254 241 227
309 320 323 325 325 308 267 290 1 9 353 332 316 313 318 324 43 62 65 57 40 45 95 114 223 216 175 195 252 178 153 267 296 358 345 250 236 297 58 89 234 274 1 13 253 229 234 56 119 183 232 226 231 251 254 246 253 265 273 279 284 285 278 276 281 294 302 303 301 298 295 284 273 267 269 278 281 268 244 246 242 231 236 246 249 240 233
306 317 321 326 342 1 295 303 327 337 330 322 324 338 353 36 57 19 357 13 5 13 61 101 235 245 112 140 250 136 172 262 343 13 309 243 220 345 19 106 193 252 330 294 251 195 82 6 87 206 247 263 273 272 265 258 257 261 264 271 277 281 282 284 288 295 301 305 307 309 309 305 297 287 275 275 278 268 253 252 248 238 235 241 245 243 236
304 315 325 337 350 222 274 317 329 326 316 317 339 27 347 17 46 4 321 346 353 349 30 55 230 191 125 164 266 287 100 72 20 2 289 243 309 311 299 276 264 19 358 297 277 83 19 308 328 309 282 281 280 270 263 262 268 270 267 267 271 276 280 281 277 270 268 278 289 294 295 295 293 290 288 289 288 279 268 262 253 246 242 242 242 239 232
306 330 354 1 325 293 303 316 323 320 316 339 10 47 19 17 42 221 317 19 11 281 307 107 205 194 134 159 241 271 79 91 116 223 219 228 247 176 88 288 272 31 321 276 278 55 48 276 303 307 270 255 258 270 286 300 285 276 278 280 280 283 285 283 280 279 276 275 280 283 281 276 274 275 278 285 290 288 283 272 256 249 246 240 236 233 234
318 7 343 303 299 306 308 312 322 340 23 32 17 31 47 340 323 27 76 54 297 273 268 93 70 307 317 138 180 224 266 64 103 130 131 293 303 84 104 271 294 65 247 255 259 67 72 298 280 267 248 244 256 276 299 303 290 286 291 294 294 296 296 293 291 293 294 292 288 288 287 283 277 273 272 273 274 277 278 277 268 256 244 236 234 237 241
292 303 303 297 295 300 307 317 345 10 53 76 23 1 314 273 347 23 236 215 235 267 301 94 142 220 218 162 160 192 193 52 59 82 87 312 298 105 116 314 3 51 241 249 10 60 50 282 269 260 251 252 268 288 301 296 288 291 296 298 302 306 305 302 301 303 304 302 295 292 294 291 284 281 281 280 277 275 273 271 267 259 251 244 241 242 245
292 294 298 302 303 316 348 353 6 55 68 56 31 1 327 333 7 20 288 287 288 227 259 211 133 161 175 132 115 96 68 62 64 82 100 252 294 72 62 24 354 217 237 272 58 65 234 234 237 248 256 268 284 294 296 291 288 293 296 297 303 307 307 304 303 304 307 306 300 296 296 293 289 289 290 287 280 276 275 273 269 264 259 252 244 242 244
294 298 324 344 338 6 12 317 323 95 77 1 100 140 297 313 311 231 251 274 263 242 241 173 149 196 252 247 95 74 41 56 74 78 71 323 27 69 78 244 236 232 262 13 62 226 244 239 240 252 270 287 290 289 291 295 300 305 305 305 309 313 313 312 311 309 310 311 307 303 301 298 295 296 297 293 283 276 276 278 276 268 258 250 245 244 245
296 320 26 21 343 327 334 314 336 38 129 221 181 169 192 240 234 223 231 229 186 175 304 116 128 148 229 269 75 100 153 33 44 53 215 44 38 60 216 229 240 33 41 343 289 282 272 259 254 258 266 272 281 290 296 298 301 306 309 312 316 319 319 318 316 313 312 312 311 310 308 303 301 300 299 298 295 285 277 278 277 269 254 246 244 245 246
216 100 78 68 302 293 97 53 317 300 199 205 194 179 182 204 217 220 226 187 131 153 190 168 121 118 161 245 27 80 87 70 65 231 133 89 61 256 234 207 64 45 38 296 274 259 249 250 254 256 260 272 289 300 301 299 301 305 307 309 313 316 317 316 314 312 311 312 313 312 308 306 305 302 300 301 302 296 285 281 277 266 251 243 243 246 247
147 88 83 96 281 310 56 200 222 220 207 209 207 196 195 220 244 235 207 171 168 166 166 138 101 111 149 157 131 170 15 64 67 269 234 116 210 274 355 56 232 220 189 228 247 246 246 256 263 262 270 290 303 305 302 303 305 305 305 304 304 308 314 315 314 312 313 314 314 313 310 309 309 307 304 303 302 300 295 289 279 266 253 247 248 251 249
163 73 92 172 222 234 222 234 267 305 342 349 255 242 228 258 285 271 244 197 159 142 133 119 107 107 343 47 89 140 304 39 95 249 215 104 178 311 7 6 274 248 202 207 228 239 250 264 274 281 290 299 300 298 302 308 308 309 312 312 310 312 315 315 311 311 313 314 313 310 309 310 310 309 307 302 299 300 301 296 284 271 259 250 248 247 244
133 98 125 179 205 217 215 227 336 331 314 312 328 327 27 212 262 258 230 153 128 144 157 149 131 146 247 349 64 86 257 249 200 264 4 30 216 221 179 235 272 272 241 218 224 242 261 277 292 301 302 301 299 300 303 305 306 309 313 310 308 310 312 310 309 311 313 313 311 308 309 310 309 308 307 302 298 301 305 302 288 275 265 254 247 245 244
84 104 185 198 249 261 254 285 8 318 304 320 334 326 183 213 269 253 191 155 124 85 84 79 81 102 130 25 45 29 267 241 153 109 102 232 209 184 179 226 237 239 233 226 233 253 271 287 303 308 306 307 308 308 309 310 310 312 311 308 308 309 310 310 311 313 313 312 312 310 309 308 307 306 306 304 300 300 301 296 285 275 269 261 252 248 249
16 305 242 225 213 217 215 176 284 272 281 302 303 258 187 175 242 220 176 150 105 71 76 184 124 70 52 28 85 193 254 232 110 121 235 233 191 154 184 227 233 232 242 257 262 268 282 294 298 300 306 310 309 308 312 313 309 308 310 311 313 316 317 316 316 315 313 313 313 312 309 308 308 309 308 305 303 301 298 292 287 280 273 266 259 254 253
164 238 291 321 129 157 158 169 246 251 254 257 248 221 171 179 229 200 159 132 117 126 188 184 101 85 87 239 212 165 71 27 95 238 248 238 200 180 201 226 241 253 272 287 291 290 290 291 284 279 288 298 302 307 312 312 309 309 313 316 319 321 320 317 316 316 314 313 312 311 310 311 313 313 311 306 302 297 290 292 296 295 283 272 268 264 261